Location: Recife
(8.0585°S, 34.8848°W)
Time: 06:49:57
(UTC-03:00)

Vanguard 3 - Pass Details

Date: 17 April 2026
Orbit: 507 x 3205 km, 33.4° (Epoch: 13 May)

Event Time Altitude Azimuth Distance (km) Brightness Sun altitude
Rises 19:07:22 0° 256° (WSW) 5,913 12.6 -28.0°
Reaches altitude 10° 19:13:08 10° 270° (W) 4,350 11.8 -29.4°
Maximum altitude 19:20:37 21° 312° (NW) 2,789 10.3 -31.2°
Drops below altitude 10° 19:25:52 10° 359° (N) 2,909 10.0 -32.5°
Enters shadow 19:27:28 - 9° (N) 3,203 10.2 -32.9°
Sets 19:28:49 0° 17° (NNE) 3,518 - -33.2°
